Location: Buttermere
(51.3333°N, 1.5167°W)
Time: 21:40:53
(UTC+00:00)

NOSS 3-4 (C) - Pass Details

Date: 18 September 2020
Orbit: 886 x 1326 km, 63.4° (Epoch: 19 October)

Event Time Altitude Azimuth Distance (km) Brightness Sun altitude
Exits shadow 22:41:39 47° 16° (NNE) 1,263 4.2 -34.7°
Drops below altitude 10° 22:46:30 10° 43° (NE) 2,816 6.1 -35.0°
Sets 22:49:18 0° 47° (NE) 3,836 6.8 -35.2°
